Bolton Field, OH

5:09 AM EDT on May 25, 2017 (GMT -0400)
Bolton

Weather History for KTZR - February, 2014

Change the Weather History Date:

Thursday, February 27, 2014

  Actual Average Record
Temperature  
Mean Temperature 14 °F -  
Max Temperature 21 °F 42 °F 64 °F (1998)
Min Temperature 8 °F 28 °F 0 °F (2015)
Degree Days  
Heating Degree Days 52    
Moisture  
Dew Point 4 °F    
Average Humidity 62    
Maximum Humidity 80    
Minimum Humidity 39    
Precipitation  
Precipitation 0.00 in - - ()
Sea Level Pressure  
Sea Level Pressure 29.91 in    
Wind  
Wind Speed 14 mph (West)    
Max Wind Speed 23 mph    
Max Gust Speed 32 mph    
Visibility 9 miles    
Events Snow    
Averages and records for this station are not official NWS values.
T = Trace of Precipitation, MM = Missing Value Source: NWS Daily Summary

Daily Weather History Graph

Daily Weather History Graph

Search for Another Location

Airport or City:

Trip Planner

Search our weather history database for the weather conditions in past years. The results will help you decide how hot, cold, wet, or windy it might be!

Date:

Astronomy

Feb. 27, 2014 Rise Set
Actual Time 7:08 AM EST 6:22 PM EST
Civil Twilight 6:41 AM EST 6:49 PM EST
Nautical Twilight 6:10 AM EST 7:20 PM EST
Astronomical Twilight 5:38 AM EST 7:52 PM EST
Moon 5:40 AM EST (2/27) 4:46 PM EST (2/27)
Length of Visible Light 12h 07m
Length of Day
11h 13m
Waning Crescent, 4% of the Moon is Illuminated
Feb 27
Waning Crescent
Mar 1
New
Mar 8
First Quarter
Mar 16
Full
Mar 23
Last Quarter

Hourly Weather History & Observations

Time (EST) Temp. Windchill Dew Point Humidity Pressure Visibility Wind Dir Wind Speed Gust Speed Precip Events Conditions
12:15 AM 16.5 °F - 5.2 °F 61% 29.80 in 10.0 mi North - - N/A   Clear
12:35 AM 16.3 °F 3.4 °F 5.0 °F 61% 29.79 in 10.0 mi WSW 11.5 mph - N/A   Clear
12:55 AM 16.5 °F 3.0 °F 4.5 °F 59% 29.79 in 10.0 mi WSW 12.7 mph 19.6 mph N/A   Clear
1:15 AM 16.3 °F 1.0 °F 4.5 °F 60% 29.78 in 10.0 mi WSW 16.1 mph 23.0 mph N/A   Clear
1:35 AM 16.2 °F 2.5 °F 4.1 °F 59% 29.78 in 10.0 mi WSW 12.7 mph - N/A   Clear
1:55 AM 16.2 °F 1.3 °F 4.5 °F 60% 29.77 in 10.0 mi WSW 15.0 mph 23.0 mph N/A   Clear
2:15 AM 15.8 °F 2.1 °F 4.5 °F 61% 29.76 in 10.0 mi SW 12.7 mph 20.7 mph N/A   Clear
2:35 AM 15.8 °F 0.9 °F 4.6 °F 61% 29.75 in 10.0 mi SW 15.0 mph 20.7 mph N/A   Clear
2:55 AM 15.4 °F 0.4 °F 5.0 °F 63% 29.74 in 10.0 mi SW 15.0 mph 18.4 mph N/A   Clear
3:15 AM 15.4 °F - 5.0 °F 63% 29.73 in 10.0 mi North - - N/A   Clear
3:35 AM 15.3 °F 0.2 °F 5.5 °F 65% 29.72 in 10.0 mi SW 15.0 mph - N/A   Clear
3:55 AM 15.8 °F 0.9 °F 5.5 °F 64% 29.71 in 10.0 mi SW 15.0 mph - N/A   Mostly Cloudy
4:15 AM 15.6 °F 0.1 °F 5.5 °F 64% 29.71 in 10.0 mi SW 16.1 mph 20.7 mph N/A   Mostly Cloudy
4:35 AM 15.8 °F 0.9 °F 5.4 °F 63% 29.70 in 10.0 mi SW 15.0 mph 21.9 mph N/A   Scattered Clouds
4:50 AM 16.0 °F 0.1 °F 5.4 °F 63% 29.70 in 10.0 mi SW 17.3 mph 24.2 mph N/A   Scattered Clouds
5:15 AM 17.2 °F 1.7 °F 5.9 °F 61% 29.70 in 10.0 mi SW 17.3 mph 25.3 mph N/A   Overcast
5:35 AM 17.6 °F 1.7 °F 5.9 °F 60% 29.69 in 10.0 mi SW 18.4 mph 25.3 mph N/A   Overcast
5:55 AM 18.0 °F 1.7 °F 6.3 °F 60% 29.69 in 10.0 mi SW 19.6 mph 26.5 mph N/A   Overcast
6:15 AM 18.3 °F 2.6 °F 6.8 °F 61% 29.69 in 10.0 mi SW 18.4 mph 25.3 mph N/A   Overcast
7:15 AM 19.4 °F 5.5 °F 6.8 °F 58% 29.71 in 10.0 mi WSW 15.0 mph - N/A   Mostly Cloudy
7:47 AM 19.4 °F 5.5 °F 8.6 °F 63% 29.73 in 10.0 mi WSW 15.0 mph 20.7 mph N/A   Overcast
8:35 AM 19.4 °F 2.8 °F 8.6 °F 63% 29.76 in 4.0 mi West 21.9 mph 29.9 mph N/A Snow Light Snow
8:47 AM 19.4 °F 3.2 °F 12.2 °F 74% 29.76 in 2.0 mi West 20.7 mph 32.2 mph N/A Snow Light Snow
9:00 AM 19.4 °F 6.6 °F 14.0 °F 80% 29.78 in 0.8 mi West 12.7 mph 26.5 mph N/A Snow Light Snow
9:15 AM 19.4 °F 5.5 °F 14.0 °F 80% 29.79 in 10.0 mi West 15.0 mph 21.9 mph N/A   Overcast
9:30 AM 19.4 °F 3.2 °F 8.6 °F 63% 29.80 in 10.0 mi West 20.7 mph 27.6 mph N/A   Mostly Cloudy
9:47 AM 19.4 °F 2.5 °F 8.6 °F 63% 29.81 in 2.0 mi SW 23.0 mph - N/A Snow Light Snow
10:00 AM 17.6 °F 0.9 °F 8.6 °F 68% 29.82 in 10.0 mi West 20.7 mph - N/A   Mostly Cloudy
10:47 AM 19.4 °F 4.1 °F 6.8 °F 58% 29.86 in 10.0 mi WNW 18.4 mph 25.3 mph N/A   Mostly Cloudy
11:50 AM 19.4 °F 5.0 °F 8.6 °F 63% 29.91 in 5.0 mi WNW 16.1 mph - N/A Snow Light Snow
12:16 PM 19.4 °F 4.5 °F 6.8 °F 58% 29.93 in 10.0 mi WNW 17.3 mph 25.3 mph N/A   Mostly Cloudy
12:57 PM 19.4 °F 6.0 °F -0.4 °F 42% 29.95 in 10.0 mi West 13.8 mph 27.6 mph N/A   Mostly Cloudy
1:50 PM 19.4 °F 4.5 °F -0.4 °F 42% 29.97 in 10.0 mi NW 17.3 mph 25.3 mph N/A   Mostly Cloudy
2:50 PM 19.4 °F 4.1 °F -0.4 °F 42% 29.99 in 10.0 mi NW 18.4 mph 25.3 mph N/A   Mostly Cloudy
3:55 PM 19.4 °F 6.6 °F -2.2 °F 39% 30.02 in 10.0 mi WNW 12.7 mph 25.3 mph N/A   Scattered Clouds
4:55 PM 17.6 °F 4.3 °F 1.4 °F 49% 30.04 in 10.0 mi NNW 12.7 mph - N/A   Scattered Clouds
5:50 PM 15.8 °F 3.4 °F 1.4 °F 53% 30.06 in 10.0 mi NW 10.4 mph - N/A   Scattered Clouds
6:35 PM 14.5 °F 1.9 °F 0.3 °F 53% 30.07 in 10.0 mi North 10.4 mph - N/A   Clear
6:55 PM 13.6 °F 2.5 °F 4.5 °F 67% 30.09 in 10.0 mi North 8.1 mph - N/A   Clear
6:58 PM 12.2 °F 0.7 °F 3.2 °F 67% 30.09 in 10.0 mi North 8.1 mph - N/A   Clear
7:15 PM 13.1 °F -0.7 °F 4.5 °F 68% 30.10 in 10.0 mi North 11.5 mph - N/A   Clear
7:35 PM 12.9 °F -0.2 °F 3.2 °F 65% 30.10 in 10.0 mi NNW 10.4 mph - N/A   Clear
7:55 PM 12.2 °F -1.8 °F 3.2 °F 67% 30.11 in 10.0 mi North 11.5 mph - N/A   Clear
8:15 PM 11.7 °F - 2.7 °F 67% 30.12 in 10.0 mi North - - N/A   Clear
8:35 PM 11.5 °F 0.9 °F 2.1 °F 66% 30.13 in 10.0 mi North 6.9 mph - N/A   Clear
8:55 PM 11.3 °F - 1.8 °F 66% 30.13 in 10.0 mi North - - N/A   Clear
9:15 PM 11.1 °F - 1.0 °F 64% 30.13 in 10.0 mi North - - N/A   Clear
9:35 PM 10.6 °F -1.3 °F 0.5 °F 64% 30.15 in 10.0 mi North 8.1 mph - N/A   Clear
9:55 PM 10.2 °F -1.7 °F 0.3 °F 64% 30.15 in 10.0 mi North 8.1 mph - N/A   Clear
10:15 PM 10.2 °F - -1.1 °F 60% 30.16 in 10.0 mi North - - N/A   Clear
10:35 PM 10.0 °F -3.7 °F -0.4 °F 63% 30.16 in 10.0 mi NNE 10.4 mph - N/A   Clear
10:55 PM 9.5 °F -1.5 °F -0.6 °F 64% 30.16 in 10.0 mi NNE 6.9 mph - N/A   Clear
11:15 PM 8.6 °F -2.6 °F -0.9 °F 65% 30.17 in 10.0 mi North 6.9 mph - N/A   Clear
11:35 PM 8.1 °F -2.0 °F -0.8 °F 67% 30.17 in 10.0 mi NNE 5.8 mph - N/A   Clear
11:50 PM 8.6 °F - -1.5 °F 64% 30.17 in 10.0 mi North - - N/A   Clear